1485180000.27,9257,11.5,73648.3,-1.89,-39.91,-40.09,0,*66
1485180001.52,9258,11.5,73644.0,-1.89,-40.29,-40.29,0,*66
1485180002.77,9259,11.5,73644.3,-1.87,-40.15,-40.21,0,*6E
1485180004.02,9260,11.5,73648.8,-1.89,-40.29,-40.41,0,*63
1485180005.28,9261,11.5,73646.0,-1.89,-40.09,-40.21,0,*66
1485180006.55,9262,11.5,73648.8,-1.91,-40.09,-40.29,0,*64
1485180007.8,9263,11.5,73648.0,-1.91,-40.29,-40.47,0,*6F
1485180009.04,9264,11.5,73648.5,-1.91,-40.29,-40.35,0,*6D
1485180010.29,9265,11.5,73650.3,-1.91,-39.97,-40.15,0,*65
1485180011.56,9266,11.5,73648.5,-1.91,-40.29,-40.29,0,*62
1485180012.79,9267,11.5,73646.8,-1.93,-40.09,-40.15,0,*6C
1485180014.03,9268,11.5,73648.3,-1.93,-40.15,-40.29,0,*61
1485180015.27,9269,11.5,73644.8,-1.91,-39.97,-40.15,0,*69
1485180016.53,9270,11.5,73648.0,-1.91,-40.09,-40.15,0,*68
1485180017.79,9271,11.5,73646.8,-1.91,-40.15,-40.29,0,*6B
1485180019.02,9272,11.5,73646.8,-1.91,-40.15,-40.15,0,*67
1485180020.28,9273,11.5,73646.8,-1.93,-40.09,-40.29,0,*66
1485180021.5,9274,11.5,73648.5,-1.93,-40.09,-40.15,0,*6E
1485180022.73,9275,11.5,73646.3,-1.93,-39.91,-39.97,0,*64
1485180023.98,9276,11.5,73646.8,-1.93,-40.29,-40.29,0,*61
1485180025.17,9277,11.5,73648.3,-1.93,-40.35,-40.47,0,*65
1485180026.38,9278,11.5,73648.5,-1.93,-40.15,-40.35,0,*6D
1485180027.61,9279,11.5,73648.3,-1.93,-40.09,-40.15,0,*63
1485180028.85,9280,11.5,73646.3,-1.93,-39.97,-40.09,0,*61
1485180030.08,9281,11.5,73646.3,-1.93,-39.97,-40.15,0,*6D
1485180031.33,9282,11.5,73648.5,-1.95,-39.97,-40.15,0,*68
1485180032.53,9283,11.5,73646.0,-1.93,-39.91,-39.91,0,*6B
1485180033.78,9284,11.5,73648.5,-1.95,-39.97,-40.15,0,*6E
1485180035.03,9285,11.5,73646.5,-1.95,-39.97,-40.15,0,*6F
1485180036.27,9286,11.5,73644.8,-1.95,-39.97,-40.03,0,*6B
1485180037.53,9287,11.5,73648.8,-1.95,-39.85,-39.97,0,*6A
1485180038.75,9288,11.5,73650.8,-1.95,-39.85,-40.03,0,*66
1485180040.04,9289,11.5,73648.5,-1.95,-39.79,-39.97,0,*67
1485180041.29,9290,11.5,73648.3,-1.95,-40.03,-40.21,0,*6F
1485180042.51,9291,11.5,73646.0,-1.95,-39.65,-39.85,0,*60
1485180043.74,9292,11.5,73648.0,-1.93,-39.91,-39.97,0,*6D
1485180045.0,9293,11.5,73646.5,-1.93,-39.79,-39.97,0,*6A
1485180046.24,9294,11.5,73648.0,-1.95,-39.97,-40.03,0,*68
1485180047.47,9295,11.5,73650.0,-1.95,-39.85,-40.03,0,*6A
1485180048.7,9296,11.5,73646.8,-1.95,-39.85,-40.03,0,*69
1485180049.92,9297,11.5,73648.8,-1.95,-39.65,-39.85,0,*66
1485180051.18,9298,11.5,73648.0,-1.95,-39.79,-39.85,0,*64
1485180052.41,9299,11.5,73646.8,-1.95,-39.85,-39.85,0,*66
1485180053.63,9300,11.5,73648.3,-1.95,-39.85,-40.03,0,*67
1485180054.85,9301,11.5,73644.3,-1.95,-40.03,-40.03,0,*66
1485180056.09,9302,11.5,73650.3,-1.95,-39.65,-39.65,0,*65
1485180057.35,9303,11.5,73644.8,-1.95,-39.59,-39.65,0,*6B
1485180058.62,9304,11.5,73650.3,-1.95,-39.41,-39.53,0,*60
1485180059.88,9305,11.5,73646.5,-1.93,-39.59,-39.59,0,*64
1485180061.1,9306,11.5,73646.3,-1.95,-40.03,-40.15,0,*66
1485180062.33,9307,11.5,73648.5,-1.93,-39.91,-40.09,0,*69
1485180063.59,9308,11.5,73646.8,-1.93,-39.59,-39.79,0,*6B
1485180064.85,9309,11.5,73650.5,-1.95,-39.65,-39.97,0,*63
1485180066.07,9310,11.5,73644.8,-1.95,-39.85,-40.03,0,*66
1485180067.32,9311,11.5,73650.3,-1.95,-39.97,-40.03,0,*64
1485180068.54,9312,11.5,73650.5,-1.95,-40.03,-40.15,0,*63
1485180069.79,9313,11.5,73646.5,-1.95,-39.97,-40.03,0,*66
1485180071.02,9314,11.5,73644.8,-1.95,-40.15,-40.15,0,*62
1485180072.27,9315,11.5,73646.5,-1.95,-40.03,-40.21,0,*63
1485180073.52,9316,11.5,73646.5,-1.95,-39.97,-40.15,0,*64
1485180074.74,9317,11.5,73646.3,-1.97,-40.03,-40.21,0,*63
1485180075.99,9318,11.5,73646.5,-1.97,-39.97,-39.97,0,*6C
1485180077.27,9319,11.5,73646.0,-1.95,-39.79,-39.97,0,*6F
1485180078.52,9320,11.5,73648.0,-1.95,-39.97,-40.15,0,*61
1485180079.77,9321,11.5,73644.0,-1.95,-39.97,-40.15,0,*60
1485180081.02,9322,11.5,73648.0,-1.95,-39.97,-40.15,0,*63
1485180082.27,9323,11.5,73648.5,-1.95,-39.97,-40.15,0,*62
1485180083.49,9324,11.5,73650.8,-1.97,-39.79,-39.85,0,*60
1485180084.75,9325,11.5,73650.8,-1.97,-39.79,-39.97,0,*62
1485180085.97,9326,11.5,73648.5,-1.95,-40.03,-40.35,0,*66
1485180087.19,9327,11.5,73648.8,-1.95,-40.03,-40.35,0,*67
1485180088.42,9328,11.5,73648.0,-1.97,-40.15,-40.21,0,*68
1485180089.64,9329,11.5,73648.8,-1.97,-40.03,-40.21,0,*6E
1485180090.86,9330,11.5,73646.0,-1.97,-39.97,-40.03,0,*65
1485180092.06,9331,11.5,73644.5,-1.97,-39.65,-39.65,0,*67
1485180093.32,9332,11.5,73648.8,-1.97,-39.79,-39.79,0,*64
1485180094.55,9333,11.5,73646.0,-1.97,-39.85,-39.79,0,*66
1485180095.83,9334,11.5,73648.8,-1.95,-39.79,-39.79,0,*60
1485180097.02,9335,11.56,73650.5,-1.97,-40.03,-40.03,0,*63
1485180098.22,9336,11.5,73648.5,-1.97,-40.03,-40.15,0,*67
1485180099.44,9337,11.5,73648.8,-1.97,-39.97,-40.03,0,*62
1485180100.69,9338,11.5,73646.8,-1.95,-39.85,-39.97,0,*6F
1485180101.89,9339,11.5,73646.5,-1.97,-40.03,-40.15,0,*68
1485180103.11,9340,11.5,73644.3,-1.97,-39.97,-40.15,0,*65
1485180104.3,9341,11.5,73646.8,-1.97,-39.85,-40.03,0,*60
1485180105.51,9342,11.5,73646.8,-1.97,-40.15,-40.15,0,*63
1485180106.75,9343,11.5,73648.3,-1.95,-40.21,-40.35,0,*65
1485180107.94,9344,11.5,73648.0,-1.97,-40.35,-40.35,0,*65
1485180109.17,9345,11.5,73648.5,-1.97,-40.35,-40.41,0,*67
1485180110.38,9346,11.5,73644.8,-1.97,-40.21,-40.35,0,*62
1485180111.65,9347,11.5,73648.3,-1.99,-40.21,-40.41,0,*6E
1485180112.89,9348,11.5,73648.0,-2.01,-40.21,-40.29,0,*6D
1485180114.09,9349,11.5,73650.5,-2.01,-39.85,-40.03,0,*64
1485180115.32,9350,11.5,73650.3,-2.01,-39.91,-40.21,0,*69
1485180116.55,9351,11.5,73648.5,-1.99,-39.91,-40.03,0,*6A
1485180117.83,9352,11.5,73648.3,-1.99,-40.09,-40.29,0,*6E
1485180119.11,9353,11.5,73648.8,-1.99,-40.09,-40.29,0,*6F
1485180120.36,9354,11.5,73646.5,-2.01,-40.09,-40.21,0,*62
1485180121.64,9355,11.5,73650.3,-1.99,-40.09,-40.29,0,*69
1485180122.89,9356,11.5,73650.8,-1.99,-40.03,-40.09,0,*62
1485180124.16,9357,11.5,73648.3,-1.99,-40.21,-40.09,0,*63
1485180125.37,9358,11.5,73644.8,-2.01,-39.85,-39.91,0,*61
1485180126.59,9359,11.5,73648.0,-2.01,-39.65,-39.71,0,*60
1485180127.8,9360,11.5,73650.0,-2.01,-39.91,-39.91,0,*6F
1485180129.0,9361,11.5,73648.0,-2.01,-39.65,-39.91,0,*65
1485180130.2,9362,11.5,73646.5,-2.01,-39.65,-39.85,0,*63
1485180131.43,9363,11.5,73648.8,-2.01,-39.71,-39.91,0,*62
1485180132.69,9364,11.5,73648.5,-2.05,-39.71,-39.79,0,*67
1485180133.92,9365,11.5,73650.3,-1.99,-39.65,-39.85,0,*66
1485180135.17,9366,11.5,73650.5,-1.99,-39.71,-39.85,0,*60
1485180136.37,9367,11.5,73648.3,-2.01,-39.85,-39.85,0,*68
1485180137.57,9368,11.5,73644.5,-2.01,-39.85,-40.03,0,*67
1485180138.8,9369,11.5,73650.5,-1.99,-39.91,-40.03,0,*61
1485180140.03,9370,11.5,73648.3,-1.99,-39.65,-39.85,0,*62
1485180141.28,9371,11.5,73650.8,-2.01,-40.09,-40.21,0,*65
1485180142.5,9372,11.5,73650.3,-2.01,-40.41,-40.47,0,*6A
1485180143.74,9373,11.5,73646.8,-2.01,-40.21,-40.29,0,*65
1485180144.97,9374,11.5,73650.8,-2.01,-39.85,-40.09,0,*60
1485180146.17,9375,11.5,73646.3,-2.01,-39.85,-40.03,0,*6B
1485180147.38,9376,11.5,73650.5,-2.01,-39.91,-40.03,0,*6D
1485180148.58,9377,11.5,73648.0,-2.01,-39.91,-40.03,0,*6C
1485180149.8,9378,11.5,73650.0,-2.01,-39.65,-39.71,0,*63
1485180151.03,9379,11.5,73648.5,-2.01,-39.65,-39.71,0,*62
1485180152.29,9380,11.56,73652.0,-2.05,-39.71,-39.79,0,*6D
1485180153.53,9381,11.5,73648.5,-2.05,-39.71,-39.65,0,*61
1485180154.76,9382,11.5,73646.8,-2.01,-39.59,-39.65,0,*6C
1485180156.02,9383,11.5,73650.3,-2.05,-39.71,-39.79,0,*6E
1485180157.26,9384,11.5,73644.8,-2.05,-39.71,-39.91,0,*6F
1485180158.49,9385,11.5,73648.3,-2.05,-39.71,-39.91,0,*6E
1485180159.71,9386,11.5,73646.8,-2.01,-39.59,-39.47,0,*68
1485180160.91,9387,11.5,73644.3,-2.05,-39.35,-39.47,0,*67
1485180162.14,9388,11.5,73650.3,-2.01,-39.59,-39.65,0,*66
1485180163.34,9389,11.56,73652.3,-2.01,-39.85,-40.03,0,*68
1485180164.61,9390,11.5,73648.8,-2.05,-39.79,-39.97,0,*64
1485180165.86,9391,11.5,73648.3,-2.01,-39.71,-39.71,0,*61
1485180167.06,9392,11.5,73650.5,-2.01,-39.65,-39.85,0,*6C
1485180168.26,9393,11.5,73644.8,-2.01,-39.85,-39.91,0,*66
1485180169.47,9394,11.5,73650.3,-2.01,-39.85,-39.91,0,*61
1485180170.67,9395,11.5,73648.5,-2.01,-39.65,-39.65,0,*65
1485180171.93,9396,11.5,73646.8,-2.05,-39.71,-39.79,0,*6A
1485180173.17,9397,11.5,73648.8,-2.01,-39.59,-39.65,0,*68
1485180174.42,9398,11.56,73650.3,-2.01,-39.71,-39.71,0,*68
1485180175.66,9399,11.56,73650.8,-2.05,-39.91,-40.09,0,*62
1485180176.89,9400,11.5,73646.5,-2.05,-39.79,-39.91,0,*6C
1485180178.1,9401,11.5,73650.0,-2.05,-39.91,-39.91,0,*6B
1485180179.34,9402,11.5,73650.0,-2.05,-39.71,-39.91,0,*66
1485180180.6,9403,11.5,73650.0,-2.05,-39.79,-39.97,0,*69
1485180181.86,9404,11.5,73644.5,-2.07,-39.79,-39.91,0,*6A
1485180183.12,9405,11.5,73648.3,-2.05,-39.71,-39.79,0,*67
1485180184.35,9406,11.5,73648.8,-2.05,-39.71,-39.91,0,*62
1485180185.61,9407,11.5,73646.8,-2.05,-39.71,-39.79,0,*65
1485180186.82,9408,11.5,73648.5,-2.05,-40.15,-40.35,0,*60
1485180188.02,9409,11.5,73650.8,-2.05,-40.35,-40.35,0,*63
1485180189.26,9410,11.5,73646.8,-2.07,-39.91,-40.15,0,*6B
1485180190.54,9411,11.5,73650.5,-2.07,-40.09,-40.29,0,*6A
1485180191.83,9412,11.5,73646.5,-2.07,-39.79,-39.79,0,*6B
1485180193.08,9413,11.5,73648.8,-2.05,-39.97,-39.97,0,*68
1485180194.36,9414,11.56,73648.5,-2.07,-39.97,-40.09,0,*64
1485180195.64,9415,11.5,73644.5,-2.07,-39.97,-40.09,0,*65
1485180196.9,9416,11.5,73644.0,-2.07,-39.79,-39.91,0,*69
1485180198.16,9417,11.5,73644.3,-2.07,-39.91,-39.97,0,*68
1485180199.42,9418,11.5,73648.3,-2.05,-39.79,-39.79,0,*63
1485180200.65,9419,11.5,73646.0,-2.05,-40.29,-40.35,0,*6F
1485180201.91,9420,11.56,73650.8,-2.07,-40.15,-40.29,0,*65
1485180203.16,9421,11.5,73648.3,-2.07,-40.29,-40.35,0,*66
1485180204.41,9422,11.5,73648.0,-2.07,-40.09,-40.15,0,*65
1485180205.67,9423,11.5,73646.8,-2.07,-39.91,-39.97,0,*6F
1485180206.94,9424,11.5,73646.8,-2.07,-39.79,-39.91,0,*68
1485180208.19,9425,11.5,73646.8,-2.11,-39.85,-39.97,0,*6B
1485180209.42,9426,11.5,73648.8,-2.09,-39.79,-39.85,0,*61
1485180210.62,9427,11.5,73650.3,-2.09,-39.85,-40.03,0,*63
1485180211.83,9428,11.5,73646.0,-2.09,-40.15,-40.35,0,*6E
1485180213.02,9429,11.5,73644.5,-2.09,-40.53,-40.53,0,*6D
1485180214.26,9430,11.56,73650.0,-2.09,-40.15,-40.21,0,*62
1485180215.46,9431,11.5,73644.0,-2.09,-39.85,-40.15,0,*63
1485180216.75,9432,11.56,73646.8,-2.11,-39.79,-39.79,0,*6E
1485180218.0,9433,11.5,73644.5,-2.09,-39.79,-39.71,0,*6E
1485180219.23,9434,11.5,73646.3,-2.09,-39.71,-39.85,0,*6A
1485180220.46,9435,11.5,73644.5,-2.09,-39.85,-39.97,0,*63
1485180221.66,9436,11.5,73644.3,-2.09,-39.85,-40.15,0,*64
1485180222.88,9437,11.5,73646.5,-2.09,-39.97,-40.15,0,*66
1485180224.14,9438,11.5,73646.3,-2.11,-39.79,-39.85,0,*67
1485180225.36,9439,11.56,73650.3,-2.09,-39.97,-39.85,0,*6F
1485180226.61,9440,11.5,73646.5,-2.11,-39.85,-39.97,0,*68
1485180227.86,9441,11.5,73648.3,-2.09,-39.97,-39.97,0,*63
1485180229.11,9442,11.5,73644.8,-2.11,-39.97,-40.15,0,*6D
1485180230.36,9443,11.5,73646.8,-2.11,-39.85,-39.97,0,*6B
1485180231.56,9444,11.56,73650.5,-2.09,-39.85,-40.03,0,*66
1485180232.82,9445,11.56,73648.3,-2.09,-39.79,-39.79,0,*67
1485180234.05,9446,11.5,73646.8,-2.09,-39.79,-39.85,0,*67
1485180235.28,9447,11.5,73644.8,-2.09,-39.97,-40.15,0,*61
1485180236.5,9448,11.5,73644.8,-2.11,-40.03,-40.03,0,*63
1485180237.78,9449,11.5,73644.3,-2.13,-40.09,-40.21,0,*6A
1485180239.0,9450,11.5,73646.5,-2.11,-40.03,-40.15,0,*6D
1485180240.26,9451,11.56,73648.0,-2.11,-39.79,-39.85,0,*68
1485180241.55,9452,11.5,73646.3,-2.11,-39.79,-39.79,0,*68
1485180242.83,9453,11.56,73646.8,-2.11,-39.79,-39.79,0,*69
1485180244.09,9454,11.56,73650.3,-2.11,-39.85,-39.97,0,*6D
1485180245.37,9455,11.5,73644.3,-2.11,-39.79,-39.71,0,*67
1485180246.63,9456,11.5,73644.8,-2.11,-39.85,-39.97,0,*6F
1485180247.89,9457,11.5,73646.8,-2.11,-39.79,-39.85,0,*6E
1485180249.11,9458,11.5,73646.3,-2.11,-40.03,-40.15,0,*65
1485180250.38,9459,11.56,73650.3,-2.13,-40.21,-40.29,0,*69
1485180251.61,9460,11.56,73646.3,-2.13,-39.85,-39.91,0,*6E
1485180252.86,9461,11.56,73648.5,-2.13,-39.91,-40.09,0,*65
1485180254.14,9462,11.5,73646.5,-2.13,-40.09,-40.21,0,*63
1485180255.39,9463,11.5,73646.0,-2.13,-40.03,-40.21,0,*68
1485180256.65,9464,11.56,73648.5,-2.15,-39.97,-40.09,0,*60
1485180257.87,9465,11.56,73644.8,-2.13,-39.85,-39.85,0,*6E
1485180259.08,9466,11.5,73646.8,-2.15,-40.15,-40.35,0,*69
1485180260.33,9467,11.56,73650.0,-2.13,-40.03,-40.09,0,*66
1485180261.56,9468,11.56,73648.8,-2.13,-39.85,-39.91,0,*66
1485180262.77,9469,11.5,73644.3,-2.15,-39.91,-39.91,0,*64
1485180264.03,9470,11.5,73646.8,-2.13,-39.91,-40.09,0,*65
1485180265.29,9471,11.56,73648.0,-2.15,-40.09,-40.09,0,*6D
1485180266.51,9472,11.56,73644.8,-2.15,-40.29,-40.35,0,*63
1485180267.71,9473,11.56,73648.8,-2.15,-40.35,-40.47,0,*6A
1485180268.94,9474,11.56,73644.8,-2.15,-40.29,-40.47,0,*60
1485180270.14,9475,11.5,73648.3,-2.15,-40.47,-40.53,0,*6C
1485180271.38,9476,11.56,73648.5,-2.17,-40.29,-40.35,0,*65
1485180272.6,9477,11.5,73644.0,-2.17,-40.35,-40.47,0,*6C
1485180273.85,9478,11.5,73644.0,-2.17,-39.97,-40.15,0,*62
1485180275.13,9479,11.56,73648.8,-2.17,-40.09,-40.29,0,*65
1485180276.36,9480,11.56,73646.5,-2.17,-40.15,-40.47,0,*66
1485180277.61,9481,11.56,73648.3,-2.17,-40.29,-40.53,0,*6D
1485180278.83,9482,11.5,73646.8,-2.19,-40.29,-40.53,0,*60
1485180280.08,9483,11.56,73646.8,-2.19,-40.41,-40.59,0,*65
1485180281.33,9484,11.56,73648.3,-2.17,-40.09,-40.15,0,*68
1485180282.59,9485,11.56,73648.0,-2.17,-40.15,-40.29,0,*6B
1485180283.82,9486,11.56,73646.8,-2.17,-40.15,-40.15,0,*67
1485180285.06,9487,11.5,73646.5,-2.17,-40.15,-40.35,0,*64
1485180286.31,9488,11.56,73648.0,-2.17,-40.15,-40.29,0,*66
1485180287.54,9489,11.56,73648.3,-2.19,-40.41,-40.53,0,*65
1485180288.73,9490,11.56,73646.3,-2.19,-40.53,-40.73,0,*6C
1485180289.93,9491,11.5,73646.0,-2.19,-40.35,-40.35,0,*6F
1485180291.15,9492,11.56,73650.0,-2.19,-40.41,-40.53,0,*6F
1485180292.35,9493,11.5,73644.0,-2.19,-40.35,-40.53,0,*6D
1485180293.61,9494,11.5,73644.5,-2.21,-40.35,-40.41,0,*62
1485180294.83,9495,11.56,73650.8,-2.23,-40.29,-40.47,0,*6A
1485180296.08,9496,11.56,73648.0,-2.21,-39.97,-40.15,0,*67
1485180297.3,9497,11.5,73644.3,-2.21,-40.03,-40.03,0,*62
1485180298.53,9498,11.5,73644.8,-2.21,-40.03,-40.15,0,*6A
1485180299.75,9499,11.5,73646.3,-2.23,-40.21,-40.35,0,*6B
1485180300.99,9500,11.56,73648.3,-2.21,-40.15,-40.15,0,*6D
1485180302.24,9501,11.5,73646.3,-2.21,-40.03,-40.21,0,*6C
1485180303.49,9502,11.5,73644.3,-2.23,-40.29,-40.29,0,*6D
1485180304.75,9503,11.56,73648.5,-2.23,-40.29,-40.41,0,*62
1485180305.98,9504,11.5,73644.3,-2.23,-40.41,-40.47,0,*6D
1485180307.22,9505,11.56,73646.0,-2.23,-40.21,-40.29,0,*62
1485180308.48,9506,11.56,73648.0,-2.23,-40.09,-40.09,0,*69
1485180309.71,9507,11.56,73648.0,-2.21,-40.03,-40.03,0,*6A
1485180310.97,9508,11.5,73646.5,-2.23,-40.09,-40.21,0,*6D
1485180312.2,9509,11.56,73650.0,-2.23,-40.03,-40.09,0,*6C
1485180313.43,9510,11.56,73644.5,-2.23,-40.03,-40.09,0,*64
1485180314.63,9511,11.5,73644.5,-2.23,-40.03,-40.03,0,*6F
1485180315.85,9512,11.56,73646.0,-2.21,-40.03,-40.03,0,*6E
1485180317.05,9513,11.56,73646.3,-2.23,-40.03,-40.03,0,*6D
1485180318.3,9514,11.56,73646.5,-2.23,-39.97,-39.97,0,*6A
1485180319.56,9515,11.56,73646.8,-2.27,-39.97,-39.79,0,*6F
1485180320.81,9516,11.56,73646.5,-2.27,-39.97,-39.97,0,*6C
1485180322.03,9517,11.56,73646.8,-2.27,-39.97,-40.03,0,*6E
1485180323.24,9518,11.56,73646.3,-2.27,-39.85,-39.85,0,*62
1485180324.44,9519,11.56,73646.8,-2.23,-40.03,-40.03,0,*67
1485180325.64,9520,11.5,73644.5,-2.23,-40.03,-40.03,0,*6D
1485180326.91,9521,11.56,73644.8,-2.21,-39.97,-39.97,0,*6E
1485180328.15,9522,11.56,73648.0,-2.23,-39.79,-39.85,0,*6C
1485180329.39,9523,11.5,73642.8,-2.23,-39.79,-39.65,0,*63
1485180330.6,9524,11.56,73646.8,-2.23,-39.65,-39.65,0,*69
1485180331.88,9525,11.56,73646.8,-2.21,-39.53,-39.59,0,*60
1485180333.14,9526,11.56,73644.3,-2.23,-39.79,-39.79,0,*6B
1485180334.43,9527,11.5,73644.5,-2.21,-39.79,-39.79,0,*68
1485180335.66,9528,11.56,73646.0,-2.21,-39.91,-39.91,0,*67
1485180336.92,9529,11.56,73648.3,-2.23,-39.97,-39.97,0,*64
1485180338.12,9530,11.5,73642.3,-2.27,-39.85,-39.85,0,*68
1485180339.32,9531,11.5,73640.5,-2.27,-39.85,-39.85,0,*69
1485180340.58,9532,11.5,73646.0,-2.23,-39.97,-39.97,0,*6E
1485180341.81,9533,11.56,73650.0,-2.23,-39.85,-39.97,0,*6C
1485180343.03,9534,11.5,73644.5,-2.23,-39.97,-39.85,0,*6B
1485180344.24,9535,11.56,73644.0,-2.23,-39.85,-39.85,0,*69
1485180345.5,9536,11.56,73644.8,-2.27,-39.79,-39.79,0,*6E
1485180346.77,9537,11.56,73646.5,-2.27,-39.79,-39.79,0,*6F
1485180348.0,9538,11.56,73644.0,-2.27,-39.79,-39.85,0,*63
1485180349.21,9539,11.56,73644.3,-2.27,-39.85,-39.85,0,*61
1485180350.43,9540,11.56,73644.8,-2.27,-39.97,-40.03,0,*6C
1485180351.68,9541,11.56,73644.3,-2.27,-39.97,-39.97,0,*6E
1485180352.94,9542,11.56,73648.3,-2.27,-40.29,-40.41,0,*63
1485180354.18,9543,11.56,73644.8,-2.27,-40.21,-40.21,0,*6C
1485180355.44,9544,11.56,73650.0,-2.29,-40.09,-40.03,0,*6F
1485180356.67,9545,11.56,73646.3,-2.27,-40.03,-40.09,0,*60
1485180357.95,9546,11.56,73644.0,-2.29,-40.09,-40.29,0,*65
1485180359.23,9547,11.56,73646.8,-2.29,-40.09,-40.29,0,*64
1485180360.52,9548,11.56,73644.5,-2.29,-40.09,-40.09,0,*69
1485180361.75,9549,11.56,73646.8,-2.27,-39.85,-39.97,0,*65
1485180362.97,9550,11.56,73644.8,-2.29,-40.03,-40.03,0,*60
1485180364.2,9551,11.56,73644.5,-2.29,-39.91,-39.85,0,*64
1485180365.43,9552,11.56,73646.8,-2.29,-39.85,-39.85,0,*62
1485180366.66,9553,11.56,73646.5,-2.29,-39.85,-39.91,0,*66
1485180367.92,9554,11.5,73640.8,-2.29,-40.03,-40.09,0,*6E
1485180369.15,9555,11.56,73644.0,-2.29,-40.03,-40.15,0,*62
1485180370.35,9556,11.56,73648.0,-2.27,-39.91,-40.03,0,*6D
1485180371.59,9557,11.56,73646.3,-2.29,-39.91,-39.91,0,*67
1485180372.81,9558,11.56,73646.0,-2.27,-39.97,-40.03,0,*65
1485180374.04,9559,11.56,73648.0,-2.29,-40.03,-40.15,0,*6E
1485180375.3,9560,11.56,73644.8,-2.29,-40.09,-40.15,0,*6E
1485180376.56,9561,11.56,73646.0,-2.29,-40.15,-40.29,0,*6D
1485180377.78,9562,11.56,73650.0,-2.29,-40.35,-40.35,0,*61
1485180379.01,9563,11.56,73644.8,-2.31,-40.09,-40.03,0,*63
1485180380.27,9564,11.56,73644.5,-2.29,-40.09,-40.03,0,*6D
1485180381.5,9565,11.56,73646.0,-2.29,-39.91,-40.03,0,*63
1485180382.73,9566,11.56,73646.3,-2.31,-40.03,-40.09,0,*66
1485180383.97,9567,11.56,73646.0,-2.31,-39.91,-40.09,0,*62
1485180385.21,9568,11.56,73644.8,-2.31,-40.03,-40.09,0,*68
1485180386.41,9569,11.56,73646.3,-2.31,-40.03,-40.03,0,*63
1485180387.65,9570,11.56,73648.8,-2.31,-40.03,-40.09,0,*61
1485180388.88,9571,11.56,73648.3,-2.31,-40.03,-40.09,0,*60
1485180390.09,9572,11.56,73644.8,-2.31,-40.03,-40.15,0,*6E
1485180391.33,9573,11.56,73646.3,-2.31,-40.15,-40.21,0,*6F
1485180392.57,9574,11.56,73646.8,-2.31,-40.09,-40.15,0,*62
1485180393.77,9575,11.56,73646.5,-2.31,-39.91,-40.03,0,*6B
1485180394.98,9576,11.56,73644.8,-2.31,-39.91,-40.03,0,*68
1485180396.25,9577,11.56,73642.5,-2.31,-39.71,-39.71,0,*6C
1485180397.51,9578,11.56,73644.0,-2.33,-39.91,-39.79,0,*67
1485180398.8,9579,11.56,73640.8,-2.33,-40.09,-40.09,0,*60
1485180400.03,9580,11.56,73646.3,-2.31,-40.09,-40.15,0,*69
1485180401.31,9581,11.56,73644.0,-2.33,-40.21,-40.21,0,*67
1485180402.57,9582,11.56,73646.5,-2.33,-40.15,-40.21,0,*63
1485180403.81,9583,11.56,73644.8,-2.33,-40.15,-40.15,0,*65
1485180405.09,9584,11.56,73646.5,-2.33,-40.21,-40.21,0,*62
1485180406.35,9585,11.56,73644.5,-2.33,-40.15,-40.09,0,*6E
1485180407.6,9586,11.56,73644.5,-2.33,-39.97,-39.91,0,*66
1485180408.87,9587,11.56,73644.5,-2.33,-39.79,-39.91,0,*67
1485180410.11,9588,11.56,73646.5,-2.31,-39.71,-39.91,0,*62
1485180411.36,9589,11.56,73644.0,-2.33,-39.97,-39.91,0,*69
1485180412.65,9590,11.56,73646.8,-2.33,-40.09,-40.09,0,*67
1485180413.94,9591,11.56,73646.8,-2.33,-40.09,-40.09,0,*66
1485180415.15,9592,11.56,73646.0,-2.31,-40.03,-40.15,0,*60
1485180416.43,9593,11.56,73648.3,-2.33,-40.09,-40.09,0,*64
1485180417.72,9594,11.56,73644.5,-2.33,-40.09,-40.09,0,*63
1485180418.93,9595,11.56,73646.3,-2.31,-39.91,-40.03,0,*65
1485180420.14,9596,11.56,73646.0,-2.31,-40.03,-39.91,0,*66
1485180421.4,9597,11.56,73644.8,-2.33,-40.09,-40.15,0,*6D
1485180422.66,9598,11.56,73646.3,-2.33,-40.09,-40.15,0,*62
1485180423.92,9599,11.56,73646.3,-2.33,-40.15,-40.21,0,*69
1485180425.13,9600,11.56,73640.8,-2.35,-40.15,-40.15,0,*6B
1485180426.38,9601,11.56,73648.5,-2.35,-39.97,-39.97,0,*6A
1485180427.64,9602,11.56,73646.5,-2.35,-39.97,-39.97,0,*69
1485180428.86,9603,11.56,73642.3,-2.35,-39.97,-39.91,0,*6E
1485180430.1,9604,11.56,73644.3,-2.35,-39.79,-39.91,0,*69
1485180431.37,9605,11.56,73644.5,-2.33,-39.79,-39.91,0,*6E
1485180432.66,9606,11.56,73644.5,-2.33,-39.79,-39.79,0,*6B
1485180433.95,9607,11.56,73646.3,-2.33,-39.71,-39.71,0,*6A
1485180435.23,9608,11.56,73646.5,-2.33,-39.71,-39.79,0,*6D
1485180436.51,9609,11.56,73646.0,-2.33,-39.97,-40.09,0,*6D
1485180437.75,9610,11.56,73646.5,-2.33,-40.15,-40.15,0,*6C
1485180439.01,9611,11.56,73644.5,-2.33,-40.09,-40.15,0,*60
1485180440.28,9612,11.56,73642.5,-2.33,-40.15,-40.21,0,*69
1485180441.54,9613,11.56,73644.3,-2.33,-40.35,-40.41,0,*6C
1485180442.8,9614,11.56,73644.8,-2.33,-40.09,-40.15,0,*65
1485180444.06,9615,11.56,73644.5,-2.33,-40.09,-40.15,0,*64
1485180445.32,9616,11.56,73646.0,-2.35,-40.09,-40.09,0,*6C
1485180446.58,9617,11.56,73644.8,-2.35,-40.09,-40.09,0,*6D
1485180447.84,9618,11.56,73646.3,-2.35,-40.09,-40.21,0,*68
1485180449.07,9619,11.56,73644.0,-2.35,-40.15,-40.21,0,*64
1485180450.29,9620,11.5,73638.8,-2.35,-40.15,-40.15,0,*69
1485180451.54,9621,11.56,73646.5,-2.35,-39.97,-40.09,0,*61
1485180452.77,9622,11.56,73642.3,-2.37,-40.03,-40.15,0,*6E
1485180453.97,9623,11.56,73642.5,-2.35,-40.03,-40.03,0,*6A
1485180455.19,9624,11.56,73644.0,-2.35,-39.91,-39.91,0,*6D
1485180456.42,9625,11.56,73646.5,-2.37,-40.03,-40.15,0,*69
1485180457.64,9626,11.56,73646.8,-2.35,-39.97,-39.91,0,*69
1485180458.87,9627,11.56,73642.8,-2.37,-40.03,-40.15,0,*6B
1485180460.11,9628,11.56,73642.8,-2.35,-40.09,-40.15,0,*6C
1485180461.37,9629,11.56,73644.5,-2.35,-40.09,-39.97,0,*69
1485180462.62,9630,11.56,73640.5,-2.37,-40.03,-39.97,0,*69
1485180463.9,9631,11.56,73644.3,-2.37,-39.97,-39.97,0,*6B
1485180465.16,9632,11.56,73644.8,-2.37,-40.15,-40.21,0,*6F
1485180466.4,9633,11.56,73644.3,-2.37,-40.15,-40.15,0,*69
1485180467.69,9634,11.56,73644.3,-2.37,-40.29,-40.41,0,*60
1485180468.96,9635,11.56,73644.8,-2.37,-40.21,-40.29,0,*67
1485180470.23,9636,11.56,73644.3,-2.37,-40.21,-40.21,0,*6C
1485180471.48,9637,11.56,73642.5,-2.37,-40.21,-40.03,0,*6D
1485180472.74,9638,11.56,73644.0,-2.35,-39.79,-39.79,0,*60
1485180474.0,9639,11.56,73640.8,-2.37,-39.97,-39.85,0,*60
1485180475.23,9640,11.56,73644.5,-2.37,-39.85,-39.85,0,*6D
1485180476.51,9641,11.56,73642.5,-2.37,-39.97,-39.97,0,*6C
1485180477.78,9642,11.56,73646.0,-2.37,-39.97,-39.97,0,*6F
1485180478.99,9643,11.56,73642.3,-2.35,-39.91,-39.85,0,*69
1485180480.23,9644,11.56,73644.0,-2.37,-40.15,-40.15,0,*69
1485180481.49,9645,11.56,73642.8,-2.37,-40.03,-39.97,0,*6B
1485180482.74,9646,11.56,73648.0,-2.37,-39.97,-39.91,0,*6D
1485180483.99,9647,11.56,73644.5,-2.37,-39.97,-40.03,0,*69
1485180485.27,9648,11.56,73646.5,-2.37,-39.97,-39.97,0,*65
1485180486.5,9649,11.5,73638.5,-2.37,-40.03,-40.15,0,*63
1485180487.74,9650,11.56,73646.0,-2.37,-40.15,-40.15,0,*6C
1485180488.98,9651,11.56,73644.3,-2.37,-40.15,-40.15,0,*6D
1485180490.24,9652,11.56,73644.5,-2.39,-40.09,-40.21,0,*6A
1485180491.47,9653,11.56,73644.5,-2.39,-40.21,-40.47,0,*61
1485180492.69,9654,11.56,73644.3,-2.39,-40.29,-40.35,0,*6B
1485180493.94,9655,11.56,73642.8,-2.41,-40.29,-40.47,0,*60
1485180495.17,9656,11.56,73644.5,-2.39,-40.29,-40.35,0,*69
1485180496.42,9657,11.56,73642.8,-2.39,-40.21,-40.29,0,*6D
1485180497.67,9658,11.56,73644.0,-2.41,-40.29,-40.47,0,*6D
1485180498.87,9659,11.56,73640.3,-2.39,-40.47,-40.65,0,*6B
1485180500.12,9660,11.56,73640.8,-2.39,-40.21,-40.21,0,*61
1485180501.37,9661,11.56,73646.0,-2.39,-40.21,-40.21,0,*60
1485180502.61,9662,11.56,73646.5,-2.39,-40.09,-40.03,0,*69
1485180503.84,9663,11.56,73642.3,-2.41,-39.91,-40.03,0,*68
1485180505.07,9664,11.56,73644.3,-2.41,-39.91,-40.03,0,*6F
1485180506.3,9665,11.56,73644.3,-2.39,-39.71,-39.85,0,*6F
1485180507.56,9666,11.56,73642.0,-2.41,-39.65,-39.71,0,*6D
1485180508.82,9667,11.56,73640.0,-2.39,-39.71,-39.71,0,*66